Volver al catálogo

FENGYUN 1C DEB

ActivoPO
NORAD 31069·DEBRIS·🇨🇳 China

Lanzado May 10, 1999 desde Taiyuan Satellite Launch Center

Loading…

Próximos Pases (próximas 24 horas)

TLE

ActualizadoSource: Space-Track

Época: Sep 14, 2026, 06:13 UTC

1 31069U 99025BFP 26257.25941134  .00001496  00000-0  31039-3 0  9994
2 31069  99.1144  88.7132 0100547 323.4957  35.9413 14.58856960 26979

Sigue FENGYUN 1C DEB en tiempo real con AllMySat

Download on the App Store